Showing default

HAWK-3B, 48931

Orbit data source: Space-Track

HAWK-3B, 48931 is a payload satellite owned by HawkEye 360 (US) in SSO that was launched on Wed, 30 Jun 2021 UTC via an FALCON 9 launch vehicle from the Air Force Eastern Test Range (AFETR). Payloads include a variety of satellites, spacecraft, and rockets equipped with specific instruments for various scientific and technological missions. These include communications satellites like Starlink; space stations such as the ISS; scientific satellites like the Hubble; Earth observation satellites from companies like Planet Labs, Umbra, and HawkEye 360; GPS; miniature CubeSats for education and research; and military/defense satellites.

Loading next visibility...
HAWK-3B details
Identifier
48931, 2021-059BE
Orbit
SSO
Last TLE update10 hours ago
Origin
Flag of USHawkEye 360 (US)
ManufacturerUTIAS-SFL
MissionOperational Commercial Sigint
Bus & MotorDEFIANT, Unknown motor
Mass31 kg wet, 30 kg dry
Launch date (UTC)
2021-06-30 (4 years ago)
Launch vehicle
FALCON 9
Launch site
Air Force Eastern Test Range (AFETR)
Object type
Payload
Rocket body
Debris
Shape & HBRBox + 2 Pan, 1 m
Radar Cross Section0.348 m², Medium (>0.1 m² and < 1m²)

Expand to show TLE details & history

TLE from 10 hours ago
0 HAWK-3B
1 48931U 21059BE  25014.91657819  .00018215  00000-0  48361-3 0  9992
2 48931  97.6478 172.2048 0010522  55.8855 304.3386 15.38288463197471
Epoch: 2025-01-14T21:59Z
Definitive object data (Epoch: 2025-01-14T21:59:52.355Z)
Latitude-0.00004°
Longitude87.62025°
Altitude450.229 km
Speed7.644 km/s
True Right ascension11h 28m 49s
True Declination0° 00' 00"
Sunlit
Object was in full shadow at TLE epoch
Visualization TLE readout
Latitude72.88988°
Longitude62.33302°
Altitude456.922 km
Speed7.649 km/s
Apparent Right ascension19h 25m 23s
Apparent Declination38° 03' 34"
Sunlit
Object is in full shadow
Visualization observer readout
Local Sidereal Time08:20:48
Azimuth11.074° NNE
Elevation-10.997°
Doppler factor1
Orbital elements
Apogee altitude455.305 km
Perigee altitude440.94 km
Semi-major axis6,826.259 km
Eccentricity0.0010522
Inclination97.6478°
RAAN172.2048°
Arg. of periapsis55.8855°
True anomaly304.23897°
Mean anomaly304.3386°
Eccentric anomaly304.28879°
Mean motion3.8483 °/min
BSTAR0.00048361
Orbital period93.55 mins
Loading maneuver chart data...
Loading historical data...
Loading historical data...
Loading historical data...
Loading historical data...
Loading historical data...
Loading historical data...
Loading historical data...

HAWK-3B Visibility forecast

Observer location: undefined°, undefined

Span
Click to sort rows by Start time (UTC) header in descending order
Start Az.
Max El. time (UTC)
Max El. Az.
Max El.
End time (UTC)
End Az.
5 mins2025-01-15 10:37:13.725Z185.875° SSW2025-01-15 10:39:13.725Z235.561° WSW37.83°2025-01-15 10:42:13.725Z335.518° NNW
4 mins2025-01-15 23:33:13.725Z343.694° N2025-01-15 23:34:13.725Z309.927° NW35.244°2025-01-15 23:37:13.725Z214.093° SW
|